Location: Kempttal
(47.4497°N, 8.7039°E)
Time: 02:25:19
(UTC+00:00)

Daily predictions for brighter satellites

Satellite Brightness Start Highest point End
(mag) Time Altitude Azimuth Time Altitude Azimuth Time Altitude Azimuth
CENTAUR R/B 4.0 02:03:00 32° E 02:03:00 32° E 02:07:30 10° NE
Cosmos 1697 Rocket 4.1 02:35:00 32° NNE 02:35:59 35° NE 02:41:07 10° ESE
Cosmos 2344 3.5 02:37:40 80° E 02:37:40 80° E 02:45:23 10° NE
Lacrosse 4 Rocket 4.1 02:42:02 16° ENE 02:42:02 16° ENE 02:43:01 10° NE
USA 238 DEB 3.9 02:41:03 63° NE 02:41:03 63° NE 02:46:47 10° NE
USA 238 3.9 02:41:08 64° NE 02:41:08 64° NE 02:46:53 10° NE
NOSS 3-2 (A) 4.0 02:44:26 52° NNE 02:44:26 52° NNE 02:49:25 10° NE
Lacrosse 5 rocket 4.2 02:50:06 14° E 02:50:06 14° E 02:50:48 10° ENE
ATLAS 3B R/B 4.4 02:45:39 15° SSE 02:49:41 26° ESE 02:54:58 10° ENE
Cosmos 1980 Rocket 3.9 02:54:36 14° N 02:58:37 29° NE 03:03:28 10° ESE
USA 234 3.5 02:53:11 10° NE 02:59:22 55° NNW 02:59:22 55° NNW
ADEOS Rocket 3.2 02:56:24 10° SSE 03:01:46 60° ENE 03:07:20 10° N
Cosmos 1269 Rocket 4.3 03:09:19 64° ENE 03:09:19 64° ENE 03:14:02 10° NNE
IDEFIX/ARIANE 42P 4.1 03:16:41 10° N 03:18:52 24° N 03:18:52 24° N
MSX 4.1 03:27:15 10° N 03:32:03 51° NW 03:32:03 51° NW
Cosmos 1300 4.5 03:30:32 10° N 03:34:00 32° ENE 03:37:27 10° SE
ALOS 3.8 03:30:26 10° NNE 03:34:45 36° E 03:39:03 10° SSE
In-Cosmos 22 4.2 03:35:41 59° NW 03:35:41 59° NW 03:40:28 10° N
CZ-4B R/B 2.9 03:33:02 10° SE 03:36:15 36° ENE 03:37:09 30° NE
Cosmos 1833 Rocket 2.9 03:33:51 33° S 03:36:23 70° ESE 03:42:01 10° NNE
Cosmos 2279 Rocket 4.4 03:32:19 10° NNW 03:43:01 17° SSW 03:44:20 10° SSW
Cosmos 1992 Rocket 4.4 03:34:01 12° NNW 03:38:50 60° ENE 03:43:59 10° SE
Cosmos 1626 3.0 03:39:55 39° SE 03:40:46 47° E 03:44:21 10° NNE
NOSS 3-2 (C) 3.4 03:43:22 53° WNW 03:44:13 58° NW 03:50:49 10° NE
CENTAUR R/B 2.7 03:50:12 46° W 03:51:43 56° NW 03:58:53 10° NE
Cosmos 2369 3.6 03:49:30 22° NNW 03:53:16 83° WSW 03:58:54 10° SSE
Cosmos 1656 4.5 03:55:16 34° SW 03:55:16 34° SW 03:58:58 10° S
Meteor 1-24 Rocket 4.4 03:50:41 10° S 03:56:10 57° E 04:01:54 10° NNE
Cosmos 1484 Rocket 3.4 03:53:31 10° NNE 03:57:19 54° E 04:01:02 10° S
CBERS 1 LM4 rocket 4.3 03:53:04 10° NNE 03:58:02 87° WNW 04:02:24 12° SSW
Cosmos 2082 Rocket 2.6 03:53:48 10° S 03:59:18 61° ESE 04:04:50 10° NNE
Cosmos 1461 3.3 03:57:49 34° SSW 03:59:45 73° SE 04:04:28 10° NE
PSLV R/B 3.7 04:01:34 10° N 04:05:31 49° WNW 04:05:31 49° WNW
SL-16 R/B 3.9 04:01:43 10° NNW 04:06:44 31° NE 04:11:42 10° ESE
CZ-2C R/B 2.5 04:02:32 10° N 04:07:22 52° WNW 04:08:50 38° WSW
ARIANE 5 R/B 4.5 04:04:39 10° NNW 04:05:39 13° NNW 04:05:39 13° NNW
USA 290 2.8 04:06:41 29° S 04:08:04 55° ESE 04:11:16 10° NNE
CREW DRAGON DEMO-1 DEB 3.4 04:08:42 49° NNE 04:08:42 49° NNE 04:11:33 10° E
ISS -3.9 04:09:06 81° SSW 04:09:13 83° SSE 04:12:35 10° ENE
Cosmos 2251 Rocket 3.8 04:05:13 10° S 04:10:32 69° ESE 04:15:52 10° NNE
SKYMED 2 4.2 04:13:23 10° SSE 04:17:39 59° ENE 04:21:56 10° N
Lacrosse 4 Rocket 2.3 04:18:22 29° NW 04:18:22 29° NW 04:21:39 10° NNE
Cosmos 1697 Rocket 2.9 04:16:50 22° NW 04:20:05 45° WSW 04:25:26 10° S
Meteor 1-31 Rocket 2.9 04:18:08 10° NNE 04:22:06 77° E 04:26:01 10° S
COSMOS 2406 3.5 04:21:37 28° WSW 04:24:10 45° NW 04:29:37 10° NNE
[s.n.46727] 2.8 04:25:26 53° SSW 04:25:51 65° SSE 04:28:35 10° ENE
[s.n.46723] 2.8 04:25:27 51° SSW 04:25:56 65° SSE 04:28:43 10° ENE
[s.n.46707] 2.7 04:25:36 53° SSW 04:26:02 65° SSE 04:28:46 10° ENE
[s.n.46708] 2.7 04:25:41 53° SSW 04:26:07 65° SSE 04:28:51 10° ENE
[s.n.46719] 2.7 04:25:47 53° SSW 04:26:13 65° SSE 04:28:57 10° ENE
[s.n.46724] 2.7 04:25:52 53° SSW 04:26:18 65° SSE 04:29:02 10° ENE
[s.n.46687] 2.7 04:25:57 53° SSW 04:26:23 66° SSE 04:29:07 10° ENE
[s.n.46696] 2.7 04:26:02 53° SSW 04:26:29 66° SSE 04:29:13 10° ENE
[s.n.46720] 2.7 04:26:08 53° SSW 04:26:34 66° SSE 04:29:18 10° ENE
[s.n.46676] 2.7 04:26:12 52° SSW 04:26:39 66° SSE 04:29:23 10° ENE
Lacrosse 5 rocket 1.2 04:25:46 41° W 04:26:43 56° NNW 04:30:28 10° NE
[s.n.46721] 2.7 04:26:18 52° SSW 04:26:46 66° SSE 04:29:29 10° ENE
CZ-4B R/B 3.9 04:22:51 10° NNE 04:26:48 50° E 04:30:55 10° S
[s.n.46728] 2.7 04:26:23 52° SSW 04:26:51 66° SSE 04:29:35 10° ENE
[s.n.46690] 2.7 04:26:28 52° SSW 04:26:56 66° SSE 04:29:40 10° ENE
[s.n.46694] 2.7 04:26:32 52° SSW 04:26:59 66° SSE 04:29:44 10° ENE
[s.n.46702] 2.7 04:26:39 52° SSW 04:27:07 67° SSE 04:29:51 10° ENE
[s.n.46679] 2.7 04:26:42 52° SSW 04:27:10 67° SSE 04:29:55 10° ENE
[s.n.46704] 2.7 04:26:44 50° SSW 04:27:15 67° SSE 04:30:02 10° ENE
[s.n.46712] 2.7 04:26:50 52° SSW 04:27:19 67° SSE 04:30:03 10° ENE
[s.n.46711] 2.7 04:26:59 52° SSW 04:27:27 67° SSE 04:30:12 10° ENE
[s.n.46684] 2.7 04:27:01 52° SSW 04:27:30 67° SSE 04:30:14 10° ENE
[s.n.46706] 2.7 04:27:09 51° SSW 04:27:38 67° SSE 04:30:23 10° ENE
Meteor 2-5 Rocket 3.7 04:22:00 10° SSW 04:27:40 66° WNW 04:33:30 10° N
[s.n.46678] 2.7 04:27:07 50° SSW 04:27:40 68° SSE 04:30:28 10° ENE
[s.n.46677] 2.7 04:27:17 51° SSW 04:27:46 68° SSE 04:30:31 10° ENE
[s.n.46671] 2.7 04:27:22 51° SSW 04:27:52 68° SSE 04:30:36 10° ENE
[s.n.46675] 2.7 04:27:27 51° SSW 04:27:58 68° SSE 04:30:42 10° ENE
[s.n.46674] 2.7 04:27:33 51° SSW 04:28:03 68° SSE 04:30:48 10° ENE
[s.n.46698] 2.7 04:27:38 51° SSW 04:28:09 68° SSE 04:30:53 10° ENE
[s.n.46699] 2.7 04:27:39 49° SSW 04:28:13 69° SSE 04:31:00 10° ENE
[s.n.46715] 2.7 04:27:48 51° SSW 04:28:20 68° SSE 04:31:04 10° ENE
[s.n.46714] 2.7 04:27:53 51° SSW 04:28:25 69° SSE 04:31:09 10° ENE
[s.n.46726] 2.7 04:27:59 51° SSW 04:28:30 69° SSE 04:31:15 10° ENE
[s.n.46703] 2.7 04:28:04 50° SSW 04:28:35 69° SSE 04:31:19 10° ENE
[s.n.46713] 2.7 04:28:09 50° SSW 04:28:41 69° SSE 04:31:26 10° ENE
[s.n.46717] 2.7 04:28:14 50° SSW 04:28:46 69° SSE 04:31:31 10° ENE
[s.n.46691] 2.7 04:28:16 49° SSW 04:28:50 70° SSE 04:31:38 10° ENE
[s.n.46693] 2.7 04:28:25 50° SSW 04:28:58 69° SSE 04:31:42 10° ENE
[s.n.46672] 2.7 04:28:30 50° SSW 04:29:03 70° SSE 04:31:48 10° ENE
[s.n.46701] 2.7 04:28:35 50° SSW 04:29:08 70° SSE 04:31:53 10° ENE
[s.n.46685] 2.7 04:28:41 50° SSW 04:29:14 70° SSE 04:31:58 10° ENE
[s.n.46709] 2.6 04:28:46 50° SSW 04:29:19 70° SSE 04:32:04 10° ENE
[s.n.46683] 2.6 04:28:50 49° SSW 04:29:23 70° SSE 04:32:08 10° ENE
FENGYUN 3A 3.6 04:24:00 10° N 04:29:27 75° WNW 04:34:52 10° SSW
[s.n.46695] 2.6 04:28:55 49° SW 04:29:29 70° SSE 04:32:14 10° ENE
[s.n.46688] 2.6 04:29:02 49° SW 04:29:36 70° SSE 04:32:21 10° ENE
[s.n.46729] 2.6 04:29:06 49° SW 04:29:40 71° SSE 04:32:25 10° ENE
[s.n.46697] 2.6 04:29:09 49° SW 04:29:43 71° SSE 04:32:29 10° ENE
[s.n.46725] 2.6 04:29:14 49° SW 04:29:48 71° SSE 04:32:33 10° ENE
[s.n.46682] 2.6 04:29:19 49° SW 04:29:53 71° SSE 04:32:39 10° ENE
[s.n.46680] 2.6 04:29:24 49° SW 04:30:00 71° SSE 04:32:45 10° ENE
[s.n.46718] 2.6 04:29:30 48° SW 04:30:05 71° SSE 04:32:50 10° ENE
[s.n.46710] 2.6 04:29:35 48° SW 04:30:10 71° SSE 04:32:56 10° ENE
[s.n.46673] 2.6 04:29:46 48° SW 04:30:21 72° SSE 04:33:07 10° ENE
[s.n.46700] 2.6 04:29:51 48° SW 04:30:27 72° SSE 04:33:12 10° ENE
[s.n.46705] 2.6 04:29:56 48° SW 04:30:32 72° SSE 04:33:18 10° ENE
[s.n.46692] 2.6 04:30:02 48° SW 04:30:39 72° SSE 04:33:24 10° ENE
[s.n.46686] 2.6 04:30:07 48° SW 04:30:44 72° SSE 04:33:29 10° ENE
[s.n.46716] 2.6 04:30:12 48° SW 04:30:49 72° SSE 04:33:35 10° ENE
[s.n.46722] 2.6 04:30:17 48° SW 04:30:55 72° SSE 04:33:40 10° ENE
Cosmos 2360 Rocket 4.3 04:26:29 10° N 04:30:58 23° NE 04:35:24 10° E
[s.n.46689] 2.6 04:30:23 47° SW 04:31:00 73° SSE 04:33:46 10° ENE
[s.n.46681] 2.6 04:30:28 47° SW 04:31:05 73° SSE 04:33:51 10° ENE
SAR-Lupe-4 3.6 04:34:02 10° S 04:37:33 55° WSW 04:41:05 10° NNW
ERS-2 3.0 04:36:22 10° SSW 04:39:17 27° WSW 04:39:17 27° WSW
Cosmos 1726 Rocket 3.7 04:35:16 10° NNW 04:39:36 51° W 04:43:55 10° S
ATLAS 3B R/B 2.6 04:33:11 10° SW 04:39:45 74° NW 04:46:27 10° NE
USA 234 4.1 04:35:55 10° ENE 04:41:52 39° N 04:46:42 15° WNW
Cosmos 1980 Rocket 2.3 04:37:29 10° NW 04:42:56 55° WSW 04:48:22 10° S
Cosmos 2228 3.6 04:40:43 10° NNW 04:44:39 34° W 04:48:36 10° SSW
Abrixas rocket 2.7 04:43:59 29° WSW 04:44:44 35° SSW 04:47:22 10° SE
ATLAS CENTAUR R/B 3.9 04:42:35 10° SSE 04:45:34 21° ESE 04:48:29 10° ENE
Cosmos 1092 Rocket 4.0 04:40:52 10° SSW 04:46:56 60° WNW 04:53:09 10° N
ADEOS Rocket 3.8 04:43:48 10° SW 04:47:51 21° W 04:52:00 10° NW
ADEOS 3.8 04:45:25 10° N 04:50:26 48° WNW 04:55:26 10° SW
Nadezhda 4 Rocket 4.5 04:45:50 10° SW 04:51:24 36° WNW 04:57:02 10° N
Cosmos 407 Rocket 4.3 04:47:45 10° S 04:52:44 54° ESE 04:57:46 10° NNE
Cosmos 2344 4.4 04:47:42 17° WNW 04:52:49 35° NNW 05:00:46 10° NE
Aureole 3 3.8 04:49:08 10° NNW 04:53:13 57° W 04:58:23 10° S
CZ-3 R/B 4.1 04:36:30 10° WSW 04:54:23 29° SSW 05:01:05 10° SE
Cosmos 1606 Rocket 4.4 04:51:27 10° NNW 04:55:19 29° W 04:59:09 10° SSW
Cosmos 1400 Rocket 3.3 04:52:27 10° NNW 04:56:06 36° W 04:59:40 10° SSW
CZ-4B R/B 4.2 04:52:09 10° N 04:56:12 46° WNW 05:00:03 10° SW
NOSS 8 (A) 4.1 04:55:44 10° SW 04:59:01 89° NW 05:01:58 10° NE
TELKOM 3 3.9 05:01:47 16° W 05:04:21 77° NNW 05:08:26 10° ENE
COSMO-SKYMED 1 2.9 05:01:34 10° S 05:05:44 45° W 05:09:57 10° NNW
S3M 4.2 05:01:42 10° N 05:08:02 79° E 05:14:24 10° SSE
CZ-4B R/B 3.1 05:06:27 10° SW 05:08:38 16° W 05:10:16 12° WNW
Cosmos 1300 4.0 05:06:35 10° NW 05:09:27 20° W 05:12:19 10° SW
ARGOS Delta rocket 4.4 05:04:24 10° N 05:09:36 49° WNW 05:14:52 10° SW
Cosmos 2292 Rocket 3.8 05:06:50 10° S 05:09:56 54° E 05:13:43 10° NNE
Cosmos 1655 Rocket 4.5 05:04:33 10° S 05:10:47 70° E 05:17:07 10° NNE
ALOS 3.1 05:08:02 10° N 05:12:04 29° WNW 05:16:05 10° SW
Cosmos 2278 4.4 05:08:16 10° NW 05:13:11 31° WSW 05:18:04 10° SSW
Meteor 2-10 Rocket 3.4 05:09:25 10° NNW 05:14:24 65° W 05:19:26 10° S
Cosmos 2322 Rocket 2.5 05:09:21 10° NNW 05:15:04 71° ENE 05:20:42 10° SE
Cosmos 1689 Rocket 3.1 05:12:42 10° SSW 05:15:11 25° W 05:17:40 10° NW
Cosmos 1626 3.9 05:14:34 11° W 05:16:19 14° WNW 05:18:20 10° NW
Cosmos 1833 Rocket 3.8 05:16:16 10° W 05:20:51 25° NW 05:25:29 10° N
MOS 1 Rocket 3.3 05:16:40 10° SSE 05:20:56 77° ENE 05:25:15 10° N
Cosmos 2084 3.7 05:20:58 10° WSW 05:25:12 51° NW 05:29:32 10° NE
H-2A R/B 2.7 05:22:55 10° NNE 05:27:20 80° ESE 05:31:35 10° SSW
Cosmos 1315 Rocket 3.1 05:23:58 10° NNW 05:27:57 48° W 05:31:55 10° S
Cosmos 2058 Rocket 4.1 05:26:05 10° NNW 05:29:47 26° W 05:33:28 10° SW
Okean 1-7 Rocket 4.3 05:26:58 10° SW 05:31:03 32° WNW 05:35:09 10° N
Cosmos 1484 Rocket 4.4 05:29:05 10° NNW 05:31:17 15° WNW 05:33:28 10° W
Cosmos 192 4.4 05:26:28 10° NNW 05:31:28 82° WSW 05:36:24 10° SSE
SL-27 R/B 2.8 05:28:32 10° SSW 05:32:07 74° ESE 05:35:45 10° NNE
CZ-4B R/B 4.2 05:28:30 10° NNE 05:33:43 52° E 05:38:52 10° S
Cosmos 1758 Rocket 4.4 05:29:23 10° S 05:33:47 58° E 05:38:12 10° NNE
H-2A R/B 2.7 05:30:23 10° N 05:34:10 62° WNW 05:37:57 10° SSW
Cosmos 1553 Rocket 4.2 05:31:24 10° NNW 05:37:13 47° W 05:42:58 10° SSW
